Overview Statistics Trail Chart Weather Telemetry Raw packets
 

This is the latest recevied weather packets stored in our database for station/object KF6RAL-6. If no packets are shown the sender has not sent any weather packets the latest 10 day(s).

<< 19 20 21 22 23 24 25 >>
Time Temp. Humidity Pressure Rain* Wind** Luminosity Snow
1788496361 28.33° C 14% 1007.4 hPa 0 mm - - -
1788495939 28.33° C 14% 1007.4 hPa 0 mm - - -
1788495518 28.33° C 14% 1007.5 hPa 0 mm - - -
1788495097 28.33° C 14% 1007.3 hPa 0 mm - - -
1788494676 28.33° C 14% 1007.3 hPa 0 mm - - -
1788494255 28.33° C 14% 1007.4 hPa 0 mm - - -
1788493834 28.33° C 14% 1006.6 hPa 0 mm - - -
1788493413 28.89° C 14% 1007.3 hPa 0 mm - - -
1788492992 28.33° C 14% 1006.5 hPa 0 mm - - -
1788492571 28.33° C 14% 1006.7 hPa 0 mm - - -
1788492152 28.89° C 14% 1007.4 hPa 0 mm - - -
1788491729 28.89° C 14% 1007.1 hPa 0 mm - - -
1788491316 28.89° C 13% 1006.8 hPa 0 mm - - -
1788490887 28.33° C 14% 1006.6 hPa 0 mm - - -
1788490467 28.33° C 14% 1006.8 hPa 0 mm - - -
1788490046 28.33° C 14% 1007 hPa 0 mm - - -
1788489624 28.33° C 15% 1007.1 hPa 0 mm - - -
1788489203 28.33° C 17% 1006.8 hPa 0 mm - - -
1788488782 28.33° C 14% 1006.8 hPa 0 mm - - -
1788488361 28.89° C 14% 1006.8 hPa 0 mm - - -
1788487940 28.89° C 15% 1006.7 hPa 0 mm - - -
1788487519 28.89° C 14% 1006.7 hPa 0 mm - - -
1788487098 28.89° C 15% 1007 hPa 0 mm - - -
1788486677 27.78° C 22% 1007.1 hPa 0 mm - - -
1788486256 28.33° C 16% 1006.5 hPa 0 mm - - -

* Rain latest hour (hover to see other rain measurements)
** Current wind speed in m/s (hover to see current wind gust speed)